Location: Crocus Hill
(18.2167°N, 63.0667°W)
Time: 04:44:57
(UTC+00:00)

Cosmos 1328 - Pass Details

Date: 26 January 2020
Orbit: 535 x 549 km, 82.5° (Epoch: 16 February)

Event Time Altitude Azimuth Distance (km) Brightness Sun altitude
Rises 10:04:01 0° 347° (NNW) 2,685 7.0 -10.5°
Reaches altitude 10° 10:06:13 10° 341° (NNW) 1,791 6.1 -10.0°
Maximum altitude 10:10:00 46° 267° (W) 720 4.0 -9.1°
Drops below altitude 10° 10:13:45 10° 193° (SSW) 1,782 6.5 -8.3°
Sets 10:15:57 0° 187° (S) 2,669 7.5 -7.8°
